Location: Highland Meadows Observing Site
(48.4428°N, 114.5461°W)
Time: 17:55:59
(UTC-06:00)

Gurwin Techsat 1B - Visible Passes

Search period start: 30 September 2014 00:00
Search period end: 10 October 2014 00:00
Orbit: 812 x 815 km, 98.5° (Epoch: 29 September)

Date Brightness Start Highest point End Pass type
(mag) Time Alt. Az. Time Alt. Az. Time Alt. Az.
30 Sep 10.5 03:34:14 10° NE 03:38:04 24° E 03:38:04 24° E visible
30 Sep 8.7 05:13:38 10° N 05:18:50 55° WNW 05:19:17 53° W visible
30 Sep 10.6 06:56:45 10° NW 06:57:41 10° NW 06:58:36 10° WNW visible
01 Oct 11.0 03:12:25 10° NE 03:15:01 16° E 03:15:01 16° E visible
01 Oct 8.5 04:50:53 10° NNE 04:56:14 82° WNW 04:56:14 82° WNW visible
01 Oct 10.3 06:32:26 10° NNW 06:35:25 15° NW 06:37:27 13° W visible
02 Oct 8.9 04:28:15 10° NNE 04:33:11 65° ENE 04:33:11 65° ENE visible
02 Oct 9.9 06:09:05 10° N 06:13:04 22° WNW 06:14:24 20° W visible
03 Oct 9.7 04:05:44 10° NNE 04:10:08 42° ENE 04:10:08 42° ENE visible
03 Oct 9.4 05:46:01 10° N 05:50:39 31° WNW 05:51:21 30° WNW visible
04 Oct 10.4 03:43:24 10° NE 03:47:05 27° ENE 03:47:05 27° ENE visible
04 Oct 8.9 05:23:05 10° N 05:28:09 46° WNW 05:28:18 46° WNW visible
05 Oct 10.9 03:21:21 10° NE 03:24:02 18° ENE 03:24:02 18° ENE visible
05 Oct 8.6 05:00:17 10° N 05:05:15 67° NW 05:05:15 67° NW visible
05 Oct 10.4 06:42:16 10° NNW 06:44:37 13° NW 06:46:27 11° WNW visible
06 Oct 11.4 03:00:03 10° ENE 03:00:59 12° ENE 03:00:59 12° ENE visible
06 Oct 8.9 04:37:35 10° NNE 04:42:12 65° NE 04:42:12 65° NE visible
06 Oct 10.0 06:18:42 10° NNW 06:22:19 19° WNW 06:23:24 18° WNW visible
07 Oct 9.6 04:15:01 10° NNE 04:19:08 45° ENE 04:19:08 45° ENE visible
07 Oct 9.6 05:55:32 10° N 05:59:55 27° WNW 06:00:21 27° WNW visible
08 Oct 10.3 03:52:36 10° NNE 03:56:05 30° ENE 03:56:05 30° ENE visible
08 Oct 9.2 05:32:33 10° N 05:37:18 39° WNW 05:37:18 39° WNW visible
09 Oct 10.8 03:30:24 10° NE 03:33:02 20° ENE 03:33:02 20° ENE visible
09 Oct 8.9 05:09:42 10° N 05:14:15 53° NW 05:14:15 53° NW visible
09 Oct 10.5 06:52:24 10° NW 06:53:49 11° NW 06:55:15 10° WNW visible
